Home > Weather > Newark > Past weeks

Flag for U.S.A. Weather for the Past 2 Weeks in Newark, New Jersey, U.S.A.

Now
23 °F

Scattered clouds.


Feels Like: 11 °F
Forecast: 20 / 29 °F
Wind: 13 mph from West

Location: Newark International Airport

Current Time: Feb 11, 2016 at 9:15:09 AM

Latest Report: Feb 11, 2016 at 7:51 AM


Visibility: 10 mi

Pressure: 29.90 "Hg

Humidity: 40%

Dew point: 2 °F

Location of NewarkLocation

Historic Weather in Newark — Graph

°F

Newark Temperature Yesterday

Maximum temperature yesterday: 40 °F (at 12:51 PM)
Minimum temperature yesterday: 31 °F (at 9:51 PM)
Average temperature yesterday: 34 °F

High & Low Weather Summary for the Past Weeks

 TemperatureHumidityPressure
High58 °F (Feb 3, 2:51 PM)100% (Feb 3, 11:51 PM)30.44 "Hg (Feb 3, 11:51 PM)
Low22 °F (Feb 11, 6:51 AM)35% (Feb 11, 4:51 AM)29.47 "Hg (Jan 29, 12:51 PM)
Average39 °F65%29.95 "Hg
* Reported Jan 27 7:51 AM — Feb 11 7:51 AM, Newark, Weather by CustomWeather, © 2016

Note: Actual official high and low records may vary slightly from our data, if they occured in-between our weather recording intervals... More about our weather records

Advertising

Newark Weather History for the Previous 24 Hours

 ConditionsComfort  
Time TempWeatherWind HumidityBarometerVisibility
7:51 AM
Thu, Feb 11
23 °FScattered clouds.13 mph40%29.90 "Hg10 mi
6:51 AM22 °FPassing clouds.15 mph38%29.88 "Hg10 mi
5:51 AM24 °FPassing clouds.15 mph35%29.85 "Hg10 mi
4:51 AM24 °FPassing clouds.17 mph35%29.82 "Hg10 mi
3:51 AM26 °FMostly cloudy.22 mph48%29.80 "Hg10 mi
2:51 AM26 °FOvercast.23 mph69%29.79 "Hg10 mi
1:51 AM27 °FLight snow. Mostly cloudy.20 mph69%29.78 "Hg9 mi
12:51 AM28 °FMostly cloudy.15 mph66%29.77 "Hg10 mi
11:51 PM
Wed, Feb 10
31 °FMostly cloudy.14 mph49%29.75 "Hg10 mi
10:51 PM31 °FPassing clouds.16 mph52%29.76 "Hg10 mi
9:51 PM31 °FPartly cloudy.15 mph52%29.75 "Hg10 mi
8:51 PM32 °FPassing clouds.12 mph54%29.74 "Hg10 mi
7:51 PM33 °FPassing clouds.17 mph49%29.73 "Hg10 mi
6:51 PM34 °FPassing clouds.17 mph48%29.73 "Hg10 mi
5:51 PM35 °FPassing clouds.15 mph48%29.71 "Hg10 mi
4:51 PM37 °FPartly sunny.20 mph46%29.67 "Hg10 mi
3:51 PM39 °FPartly sunny.21 mph45%29.65 "Hg10 mi
2:51 PM39 °FPartly sunny.15 mph45%29.63 "Hg10 mi
1:51 PM40 °FMore clouds than sun.15 mph47%29.62 "Hg10 mi
12:51 PM40 °FBroken clouds.14 mph51%29.61 "Hg10 mi
11:51 AM39 °FPartly sunny.12 mph67%29.62 "Hg10 mi
11:02 AM36 °FBroken clouds.15 mph75%29.64 "Hg9 mi
9:51 AM33 °FMostly cloudy.13 mph85%29.64 "Hg7 mi
Weather by CustomWeather, © 2016

See weather overviewHow to use our weather pages